[TLELIST] Archives

 

[list_settings.list_name] Current TLEs

November 2nd 2008 PST

HST 1 20580U 90037B 08305.04044073 .00000341 00000-0 13526-4 0 2523 2 20580 028.4686 157.1361 0003545 027.9086 332.1694 15.00422656815401 ISS (ZARYA) 1 25544U 98067A 08305.52775463 .00013299 00000-0 10275-3 0 5566 2 25544 051.6430 037.4291 0003401 285.2423 249.5815 15.72280945569985 CXO 1 25867U 99040B 08305.08333333 +.00000364 +00000-0 +10000-3 0 02598 2 25867 064.4125 076.6748 7083175 277.4589 359.0522 00.37805763004147 ____________________________________________________________________ These 2-Line ...Continue Reading

[list_settings.list_name] Current TLEs

November 1st 2008 PST

HST 1 20580U 90037B 08305.04044073 .00000341 00000-0 13526-4 0 2523 2 20580 028.4686 157.1361 0003545 027.9086 332.1694 15.00422656815401 ISS (ZARYA) 1 25544U 98067A 08304.49799380 .00010423 00000-0 81653-4 0 5492 2 25544 051.6426 042.7042 0003582 279.9093 182.3738 15.72248135569822 CXO 1 25867U 99040B 08305.08333333 +.00000364 +00000-0 +10000-3 0 02598 2 25867 064.4125 076.6748 7083175 277.4589 359.0522 00.37805763004147 ____________________________________________________________________ These 2-Line ...Continue Reading

[list_settings.list_name] Current TLEs

October 31st 2008 PST

HST 1 20580U 90037B 08303.97616573 .00000327 00000-0 12417-4 0 2514 2 20580 028.4685 164.0784 0003549 015.3227 344.7468 15.00422168815246 ISS (ZARYA) 1 25544U 98067A 08302.84386692 +.00008771 +00000-0 +68594-4 0 05376 2 25544 051.6439 051.1708 0003191 290.7143 162.6213 15.72547825569560 CXO 1 25867U 99040B 08302.45833333 .00000371 00000-0 10000-3 0 2588 2 25867 064.4007 076.7274 7076203 277.4989 001.6724 00.37805544 4139 ____________________________________________________________________ These 2-Line ...Continue Reading

[list_settings.list_name] Current TLEs

October 30th 2008 PST

HST 1 20580U 90037B 08302.84537295 .00000331 00000-0 12779-4 0 2507 2 20580 028.4686 171.4539 0003552 002.5515 357.5093 15.00421831815072 ISS (ZARYA) 1 25544U 98067A 08303.07940972 .00008802 00000-0 68803-4 0 5399 2 25544 051.6426 049.9647 0003273 290.5546 057.1298 15.72552326569595 CXO 1 25867U 99040B 08302.45833333 .00000371 00000-0 10000-3 0 2588 2 25867 064.4007 076.7274 7076203 277.4989 001.6724 00.37805544 4139 ____________________________________________________________________ These 2-Line ...Continue Reading

[list_settings.list_name] Current TLEs

October 29th 2008 PST

HST 1 20580U 90037B 08300.91637248 +.00000344 +00000-0 +13770-4 0 02687 2 20580 028.4688 184.0343 0003553 340.6764 019.3689 15.00421266814783 ISS (ZARYA) 1 25544U 98067A 08300.87374000 +.00013370 +00000-0 +10223-3 0 05227 2 25544 051.6442 061.2668 0003083 281.3622 171.3869 15.72523937569257 CXO 1 25867U 99040B 08302.45833333 .00000371 00000-0 10000-3 0 2588 2 25867 064.4007 076.7274 7076203 277.4989 001.6724 00.37805544 4139 ____________________________________________________________________ These 2-Line ...Continue Reading

[list_settings.list_name] Current TLEs

October 28th 2008 PST

HST 1 20580U 90037B 08301.11592412 .00000353 00000-0 14464-4 0 2493 2 20580 028.4689 182.7327 0003538 343.2044 016.8427 15.00421434814817 ISS (ZARYA) 1 25544U 98067A 08300.49095068 .00013761 00000-0 10512-3 0 5202 2 25544 051.6424 063.2261 0003041 281.1560 163.1483 15.72515376569193 CXO 1 25867U 99040B 08299.79166667 +.00000423 +00000-0 +10000-3 0 02576 2 25867 064.3854 076.7774 7070555 277.5470 358.5898 00.37806224004124 ____________________________________________________________________ These 2-Line ...Continue Reading

[list_settings.list_name] Current TLEs

October 27th 2008 PST

HST 1 20580U 90037B 08299.85209579 .00000372 00000-0 15967-4 0 2488 2 20580 028.4691 190.9752 0003554 329.1717 030.8652 15.00421139814628 ISS (ZARYA) 1 25544U 98067A 08299.47822959 .00007057 00000-0 56230-4 0 5146 2 25544 051.6433 068.4194 0003287 273.0486 194.3903 15.72483998569034 CXO 1 25867U 99040B 08299.79166667 +.00000423 +00000-0 +10000-3 0 02576 2 25867 064.3854 076.7774 7070555 277.5470 358.5898 00.37806224004124 ____________________________________________________________________ These 2-Line ...Continue Reading

[list_settings.list_name] Current TLEs

October 26th 2008 PST

HST 1 20580U 90037B 08298.12264730 .00000406 00000-0 18561-4 0 2477 2 20580 028.4693 202.2569 0003624 310.3805 049.6465 15.00420718814364 ISS (ZARYA) 1 25544U 98067A 08298.52110068 .00010664 00000-0 82748-4 0 5075 2 25544 051.6421 073.3213 0003382 264.8229 180.7169 15.72447725568880 CXO 1 25867U 99040B 08297.12500000 +.00000417 +00000-0 +10000-3 0 02566 2 25867 064.3741 076.8652 7065710 277.5735 355.5110 00.37805914004114 ____________________________________________________________________ These 2-Line ...Continue Reading

[list_settings.list_name] Current TLEs

October 25th 2008 PST

HST 1 20580U 90037B 08298.12264730 .00000406 00000-0 18561-4 0 2477 2 20580 028.4693 202.2569 0003624 310.3805 049.6465 15.00420718814364 ISS (ZARYA) 1 25544U 98067A 08297.83084929 .00009745 00000-0 76079-4 0 5027 2 25544 051.6421 076.8556 0003245 262.6192 232.9102 15.72427686568770 CXO 1 25867U 99040B 08297.12500000 +.00000417 +00000-0 +10000-3 0 02566 2 25867 064.3741 076.8652 7065710 277.5735 355.5110 00.37805914004114 ____________________________________________________________________ These 2-Line ...Continue Reading

[list_settings.list_name] Current TLEs

October 24th 2008 PST

HST 1 20580U 90037B 08296.85881914 .00000413 00000-0 19128-4 0 2461 2 20580 028.4694 210.4988 0003595 296.0617 063.9600 15.00420218814173 ISS (ZARYA) 1 25544U 98067A 08297.24770179 .00009532 00000-0 74555-4 0 4964 2 25544 051.6425 079.8429 0003229 258.0694 174.2024 15.72414793568680 CXO 1 25867U 99040B 08297.12500000 +.00000417 +00000-0 +10000-3 0 02566 2 25867 064.3741 076.8652 7065710 277.5735 355.5110 00.37805914004114 ____________________________________________________________________ These 2-Line ...Continue Reading
  • This mailing list is a public mailing list - anyone may join or leave, at any time.
  • This mailing list is announce-only.

International Space Station (ISS) / Hubble Space Telescope (HST) / Chandra X-Ray Observatory Orbital Data via EMAIL

Privacy Policy:

Private list